TimeEET,TemperatureF,Dew PointF,Humidity,Sea Level PressureIn,VisibilityMPH,Wind Direction,Wind SpeedMPH,Gust SpeedMPH,PrecipitationIn,Events,Conditions,WindDirDegrees,DateUTC
12:00 AM,53.6,44.6,72,30.09,-9999.0,SSE,6.9,-,N/A,,Clear,160,2012-12-11 22:00:00
1:00 AM,51.8,42.8,71,30.09,-9999.0,SSE,8.1,-,N/A,,Clear,150,2012-12-11 23:00:00
2:00 AM,50,43,68,30.11,6,South,6.9,,,,,170,2012-12-12 00:00:00
2:00 AM,50.0,42.8,76,30.09,-9999.0,South,6.9,-,N/A,,Clear,170,2012-12-12 00:00:00
3:00 AM,51.8,42.8,71,30.09,-9999.0,SSE,6.9,-,N/A,,Clear,150,2012-12-12 01:00:00
4:00 AM,50.0,42.8,76,30.09,-9999.0,South,4.6,-,N/A,,Clear,170,2012-12-12 02:00:00
5:00 AM,48.2,42.8,82,30.09,-9999.0,South,3.5,-,N/A,,Clear,180,2012-12-12 03:00:00
6:00 AM,46.4,42.8,87,30.09,-9999.0,South,4.6,-,N/A,,Clear,190,2012-12-12 04:00:00
7:00 AM,48.2,42.8,82,30.09,-9999.0,SSE,3.5,-,N/A,,Clear,160,2012-12-12 05:00:00
8:00 AM,56,43,51,30.11,6,SSE,5.8,,,,,160,2012-12-12 06:00:00
8:00 AM,55.4,42.8,63,30.09,-9999.0,SSE,5.8,-,N/A,,Clear,160,2012-12-12 06:00:00
9:00 AM,60.8,42.8,52,30.09,-9999.0,SSE,3.5,-,N/A,,Clear,150,2012-12-12 07:00:00
10:00 AM,66.2,42.8,43,30.09,-9999.0,SE,6.9,-,N/A,,Clear,140,2012-12-12 08:00:00
11:00 AM,68.0,42.8,40,30.09,-9999.0,ESE,4.6,-,N/A,,Clear,120,2012-12-12 09:00:00
12:00 PM,69.8,42.8,38,30.06,-9999.0,SE,3.5,-,N/A,,Clear,130,2012-12-12 10:00:00
1:00 PM,71.6,42.8,35,30.04,-9999.0,East,2.3,-,N/A,,Clear,80,2012-12-12 11:00:00
2:00 PM,68,46,33,30.03,6,North,4.6,,,,,0,2012-12-12 12:00:00
2:00 PM,68.0,46.4,46,30.01,-9999.0,North,4.6,-,N/A,,Clear,360,2012-12-12 12:00:00
3:00 PM,66.2,46.4,49,30.01,-9999.0,NNW,5.8,-,N/A,,Clear,340,2012-12-12 13:00:00
4:00 PM,64.4,46.4,52,30.01,-9999.0,NNW,6.9,-,N/A,,Clear,330,2012-12-12 14:00:00
5:00 PM,60.8,48.2,63,30.01,-9999.0,WNW,3.5,-,N/A,,Clear,300,2012-12-12 15:00:00
6:00 PM,59.0,48.2,67,30.04,-9999.0,WNW,2.3,-,N/A,,Clear,290,2012-12-12 16:00:00
7:00 PM,53.6,46.4,77,30.04,-9999.0,South,2.3,-,N/A,,Clear,180,2012-12-12 17:00:00
8:00 PM,53,49,80,30.06,6,SW,2.3,,,,,230,2012-12-12 18:00:00
8:00 PM,53.6,48.2,82,30.06,-9999.0,SW,2.3,-,N/A,,Clear,230,2012-12-12 18:00:00
9:00 PM,51.8,50.0,94,30.06,-9999.0,SSW,2.3,-,N/A,,Clear,210,2012-12-12 19:00:00
10:00 PM,51.8,48.2,88,30.06,-9999.0,South,2.3,-,N/A,,Clear,170,2012-12-12 20:00:00
11:00 PM,51.8,50.0,94,30.06,-9999.0,SSW,2.3,-,N/A,,Clear,200,2012-12-12 21:00:00